Location: Bermeries
(50.2863°N, 3.7551°E)
Time: 03:05:57
(UTC+00:00)

Cosmos 1300 Rocket - Pass Details

Date: 23 May 2024
Orbit: 597 x 624 km, 82.5° (Epoch: 17 June)

Event Time Altitude Azimuth Distance (km) Brightness Sun altitude
Rises 01:10:07 0° 354° (N) 2,878 8.1 -16.4°
Reaches altitude 10° 01:12:26 10° 0° (N) 1,965 7.2 -16.3°
Maximum altitude 01:16:37 47° 75° (ENE) 808 4.4 -16.0°
Enters shadow 01:20:29 12° 148° (SSE) 1,833 5.7 -15.8°
